When you browse on this site, cookies collect data to enhance your experience and personalize the content and advertising you see.
Visit our Privacy Policy to learn more. By continuing to use the site, you agree to this use of cookies and data.
  • en France
  • Liste des pays
  • À 7 jours
  • Température de l'eau
  • Carte satellitaire
  • Carte météo
  • Widgets météo
  • user-avatar
    Se connecter

    Météo par heure à Marseille

    Ce jour, 20 Mars, Mercredi

    Heure Température Précipitation Vent Pression Humidité
    00:00 +10°C° 0 mm 2 m/s 765 mmHg 58%
    01:00 +10°C° 0 mm 2 m/s 765 mmHg 60%
    02:00 +10°C° 0 mm 2 m/s 765 mmHg 61%
    03:00 +10°C° 0 mm 1 m/s 765 mmHg 63%
    04:00 +9°C° 0 mm 2 m/s 765 mmHg 64%
    05:00 +9°C° 0 mm 2 m/s 765 mmHg 66%
    06:00 +8°C° 0 mm 2 m/s 765 mmHg 67%
    07:00 +10°C° 0 mm 2 m/s 766 mmHg 60%
    08:00 +12°C° 0 mm 2 m/s 766 mmHg 54%
    09:00 +14°C° 0 mm 1 m/s 766 mmHg 47%
    10:00 +14°C° 0 mm 2 m/s 766 mmHg 43%
    11:00 +15°C° 0 mm 2 m/s 766 mmHg 40%
    12:00 +16°C° 0 mm 3 m/s 766 mmHg 36%
    13:00 +16°C° 0 mm 3 m/s 766 mmHg 36%
    14:00 +16°C° 0 mm 3 m/s 766 mmHg 36%
    15:00 +16°C° 0 mm 3 m/s 765 mmHg 36%
    16:00 +14°C° 0 mm 3 m/s 766 mmHg 37%
    17:00 +14°C° 0 mm 3 m/s 766 mmHg 39%
    18:00 +15°C° 0 mm 2 m/s 766 mmHg 40%
    19:00 +14°C° 0 mm 2 m/s 766 mmHg 42%
    20:00 +13°C° 0 mm 2 m/s 767 mmHg 44%
    21:00 +13°C° 0 mm 2 m/s 767 mmHg 46%
    22:00 +13°C° 0 mm 2 m/s 767 mmHg 46%
    23:00 +12°C° 0 mm 1 m/s 767 mmHg 47%

    Demain, 21 Mars, Jeudi

    Heure Température Précipitation Vent Pression Humidité
    00:00 +12°C° 0 mm 1 m/s 767 mmHg 48%
    01:00 +11°C° 0 mm 1 m/s 767 mmHg 50%
    02:00 +10°C° 0 mm 2 m/s 767 mmHg 52%
    03:00 +10°C° 0 mm 2 m/s 767 mmHg 55%
    04:00 +10°C° 0 mm 2 m/s 767 mmHg 56%
    05:00 +9°C° 0 mm 2 m/s 767 mmHg 57%
    06:00 +9°C° 0 mm 2 m/s 767 mmHg 58%
    07:00 +12°C° 0 mm 2 m/s 767 mmHg 51%
    08:00 +13°C° 0 mm 2 m/s 767 mmHg 45%
    09:00 +15°C° 0 mm 2 m/s 767 mmHg 39%
    10:00 +16°C° 0 mm 2 m/s 767 mmHg 34%
    11:00 +17°C° 0 mm 2 m/s 766 mmHg 30%
    12:00 +19°C° 0 mm 2 m/s 766 mmHg 25%
    13:00 +19°C° 0 mm 2 m/s 766 mmHg 26%
    14:00 +19°C° 0 mm 3 m/s 766 mmHg 26%
    15:00 +19°C° 0 mm 3 m/s 765 mmHg 27%
    16:00 +18°C° 0 mm 3 m/s 765 mmHg 31%
    17:00 +17°C° 0 mm 3 m/s 765 mmHg 34%
    18:00 +16°C° 0 mm 2 m/s 765 mmHg 37%
    19:00 +16°C° 0 mm 2 m/s 766 mmHg 40%
    20:00 +15°C° 0 mm 2 m/s 766 mmHg 42%
    21:00 +14°C° 0 mm 1 m/s 767 mmHg 45%
    22:00 +14°C° 0 mm 1 m/s 767 mmHg 45%
    23:00 +14°C° 0 mm 2 m/s 767 mmHg 45%

    Après-demain, 22 Mars, Vendredi

    Heure Température Précipitation Vent Pression Humidité
    00:00 +13°C° 0 mm 2 m/s 767 mmHg 46%
    01:00 +13°C° 0 mm 2 m/s 767 mmHg 46%
    02:00 +13°C° 0 mm 2 m/s 766 mmHg 47%
    03:00 +12°C° 0 mm 2 m/s 766 mmHg 48%
    04:00 +12°C° 0 mm 2 m/s 766 mmHg 48%
    05:00 +12°C° 0 mm 2 m/s 766 mmHg 48%
    06:00 +12°C° 0 mm 2 m/s 766 mmHg 48%
    07:00 +13°C° 0 mm 2 m/s 766 mmHg 43%
    08:00 +15°C° 0 mm 2 m/s 766 mmHg 37%
    09:00 +18°C° 0 mm 1 m/s 766 mmHg 31%
    10:00 +19°C° 0 mm 1 m/s 766 mmHg 28%
    11:00 +19°C° 0 mm 2 m/s 766 mmHg 25%
    12:00 +20°C° 0 mm 2 m/s 766 mmHg 22%
    13:00 +21°C° 0 mm 2 m/s 765 mmHg 22%
    14:00 +21°C° 0 mm 2 m/s 765 mmHg 23%
    15:00 +21°C° 0 mm 3 m/s 764 mmHg 24%
    16:00 +20°C° 0 mm 3 m/s 764 mmHg 28%
    17:00 +19°C° 0 mm 3 m/s 764 mmHg 31%
    18:00 +18°C° 0 mm 3 m/s 764 mmHg 35%
    19:00 +17°C° 0 mm 2 m/s 765 mmHg 39%
    20:00 +16°C° 0 mm 1 m/s 765 mmHg 42%
    21:00 +15°C° 0 mm 1 m/s 765 mmHg 45%
    22:00 +15°C° 0 mm 1 m/s 765 mmHg 46%
    23:00 +15°C° 0 mm 1 m/s 765 mmHg 47%

    23 Mars, Samedi

    Heure Température Précipitation Vent Pression Humidité
    00:00 +14°C° 0 mm 1 m/s 765 mmHg 47%
    01:00 +14°C° 0 mm 1 m/s 765 mmHg 47%
    02:00 +14°C° 0 mm 1 m/s 765 mmHg 47%
    03:00 +13°C° 0 mm 1 m/s 764 mmHg 47%
    04:00 +13°C° 0 mm 2 m/s 764 mmHg 46%
    05:00 +13°C° 0 mm 2 m/s 764 mmHg 46%
    06:00 +13°C° 0 mm 2 m/s 764 mmHg 45%
    07:00 +14°C° 0 mm 1 m/s 764 mmHg 41%
    08:00 +16°C° 0 mm 1 m/s 764 mmHg 37%
    09:00 +19°C° 0 mm 1 m/s 764 mmHg 34%
    10:00 +19°C° 0 mm 1 m/s 764 mmHg 32%
    11:00 +19°C° 0 mm 2 m/s 764 mmHg 30%
    12:00 +20°C° 0 mm 2 m/s 764 mmHg 28%
    13:00 +20°C° 0 mm 2 m/s 763 mmHg 29%
    14:00 +20°C° 0 mm 3 m/s 763 mmHg 29%
    15:00 +20°C° 0 mm 3 m/s 763 mmHg 30%
    16:00 +19°C° 0 mm 2 m/s 763 mmHg 33%
    17:00 +18°C° 0 mm 2 m/s 763 mmHg 36%
    18:00 +17°C° 0 mm 2 m/s 763 mmHg 39%
    19:00 +16°C° 0 mm 2 m/s 763 mmHg 42%
    20:00 +16°C° 0 mm 1 m/s 763 mmHg 44%
    21:00 +15°C° 0 mm 1 m/s 764 mmHg 47%
    22:00 +15°C° 0 mm 1 m/s 763 mmHg 48%
    23:00 +15°C° 0 mm 1 m/s 763 mmHg 48%

    24 Mars, Dimanche

    Heure Température Précipitation Vent Pression Humidité
    00:00 +14°C° 0 mm 1 m/s 763 mmHg 49%
    01:00 +14°C° 0 mm 1 m/s 763 mmHg 48%
    02:00 +14°C° 0 mm 1 m/s 763 mmHg 48%
    03:00 +13°C° 0 mm 1 m/s 763 mmHg 47%
    04:00 +13°C° 0 mm 1 m/s 763 mmHg 47%
    05:00 +13°C° 0 mm 1 m/s 763 mmHg 47%
    06:00 +13°C° 0 mm 1 m/s 763 mmHg 47%
    07:00 +14°C° 0 mm 1 m/s 763 mmHg 44%
    08:00 +16°C° 0 mm 1 m/s 763 mmHg 40%
    09:00 +19°C° 0 mm 1 m/s 763 mmHg 37%
    10:00 +20°C° 0 mm 1 m/s 763 mmHg 35%
    11:00 +19°C° 0 mm 2 m/s 763 mmHg 32%
    12:00 +20°C° 0 mm 2 m/s 762 mmHg 30%
    13:00 +21°C° 0 mm 3 m/s 762 mmHg 30%
    14:00 +21°C° 0 mm 3 m/s 762 mmHg 31%
    15:00 +21°C° 0 mm 3 m/s 761 mmHg 32%
    16:00 +20°C° 0 mm 3 m/s 761 mmHg 35%
    17:00 +19°C° 0 mm 3 m/s 761 mmHg 39%
    18:00 +18°C° 0 mm 3 m/s 761 mmHg 43%
    19:00 +18°C° 0 mm 3 m/s 761 mmHg 46%
    20:00 +17°C° 0 mm 2 m/s 762 mmHg 49%
    21:00 +16°C° 0 mm 2 m/s 762 mmHg 53%
    22:00 +16°C° 0 mm 2 m/s 762 mmHg 54%
    23:00 +16°C° 0 mm 2 m/s 761 mmHg 55%

    25 Mars, Lundi

    Heure Température Précipitation Vent Pression Humidité
    00:00 +15°C° 0 mm 2 m/s 761 mmHg 56%
    01:00 +14°C° 0 mm 3 m/s 761 mmHg 56%
    02:00 +13°C° 0 mm 3 m/s 761 mmHg 57%
    03:00 +13°C° 0 mm 3 m/s 761 mmHg 58%
    04:00 +13°C° 0 mm 3 m/s 761 mmHg 59%
    05:00 +13°C° 0 mm 3 m/s 761 mmHg 60%
    06:00 +12°C° 0 mm 3 m/s 761 mmHg 60%
    07:00 +14°C° 0 mm 3 m/s 761 mmHg 56%
    08:00 +16°C° 0 mm 2 m/s 761 mmHg 51%
    09:00 +18°C° 0 mm 2 m/s 761 mmHg 46%
    10:00 +19°C° 0 mm 2 m/s 761 mmHg 43%
    11:00 +20°C° 0 mm 2 m/s 761 mmHg 40%
    12:00 +21°C° 0 mm 2 m/s 761 mmHg 37%
    13:00 +21°C° 0 mm 3 m/s 760 mmHg 37%
    14:00 +21°C° 0 mm 3 m/s 760 mmHg 37%
    15:00 +21°C° 0 mm 4 m/s 760 mmHg 37%
    16:00 +20°C° 0 mm 4 m/s 760 mmHg 40%
    17:00 +19°C° 0 mm 4 m/s 760 mmHg 44%
    18:00 +18°C° 0 mm 4 m/s 760 mmHg 47%
    19:00 +18°C° 0 mm 3 m/s 760 mmHg 49%
    20:00 +17°C° 0 mm 3 m/s 761 mmHg 51%
    21:00 +16°C° 0 mm 2 m/s 761 mmHg 53%
    22:00 +16°C° 0 mm 2 m/s 761 mmHg 54%
    23:00 +15°C° 0 mm 2 m/s 761 mmHg 55%
    Voir plus